Weather History for Dunkirk, NY

Change the Weather History Date:

Tuesday, February 25, 2014

  Actual Average Record
Temperature  
Mean Temperature 16 °F -  
Max Temperature 19 °F 36 °F 68 °F (1957)
Min Temperature 14 °F 20 °F -2 °F (1934)
Degree Days  
Heating Degree Days 48    
Moisture  
Dew Point 10 °F    
Average Humidity 75    
Maximum Humidity 88    
Minimum Humidity 62    
Precipitation  
Precipitation 0.00 in - - ()
Sea Level Pressure  
Sea Level Pressure 30.04 in    
Wind  
Wind Speed 10 mph (WSW)    
Max Wind Speed 16 mph    
Max Gust Speed 29 mph    
Visibility 6 miles    
Events Snow    
Averages and records for this station are not official NWS values.
T = Trace of Precipitation, MM = Missing Value Source: NWS Daily Summary

Daily Weather History Graph

Daily Weather History Graph

Search for Another Location

Airport:

Trip Planner

Search our weather history database for the weather conditions in past years. The results will help you decide how hot, cold, wet, or windy it might be!

Date:

Astronomy

Feb. 25, 2014 Rise Set
Actual Time 6:58 AM EST 6:01 PM EST
Civil Twilight 6:30 AM EST 6:30 PM EST
Nautical Twilight 5:57 AM EST 7:02 PM EST
Astronomical Twilight 5:25 AM EST 7:35 PM EST
Moon 3:55 AM EST (2/25) 2:02 PM EST (2/25)
Length of Visible Light 11h 59m
Length of Day
11h 02m
Waning Crescent, 18% of the Moon is Illuminated
Feb 25
Waning Crescent
Mar 1
New
Mar 8
First Quarter
Mar 16
Full
Mar 23
Last Quarter

Hourly Weather History & Observations

Time (EST) Temp. Windchill Dew Point Humidity Pressure Visibility Wind Dir Wind Speed Gust Speed Precip Events Conditions
12:53 AM 19.9 °F 10.1 °F 12.9 °F 74% 30.11 in 9.0 mi West 8.1 mph - 0.00 in Snow Light Snow
1:53 AM 18.0 °F 7.7 °F 10.0 °F 71% 30.11 in 10.0 mi WNW 8.1 mph - 0.00 in   Overcast
2:53 AM 18.0 °F 8.7 °F 9.0 °F 68% 30.10 in 10.0 mi West 6.9 mph 19.6 mph N/A   Overcast
3:40 AM 17.1 °F 3.6 °F 8.1 °F 68% 30.05 in 10.0 mi West 12.7 mph - N/A   Overcast
3:53 AM 17.1 °F 6.6 °F 9.0 °F 71% 30.10 in 9.0 mi West 8.1 mph 17.3 mph 0.00 in Snow Light Snow
4:29 AM 17.1 °F 5.8 °F 9.0 °F 71% 30.06 in 10.0 mi WNW 9.2 mph - 0.00 in   Overcast
4:53 AM 16.0 °F 6.3 °F 8.1 °F 71% 30.10 in 10.0 mi West 6.9 mph - 0.00 in   Overcast
5:40 AM 16.0 °F 5.3 °F 8.1 °F 71% 30.06 in 9.0 mi NW 8.1 mph - 0.00 in Snow Light Snow
5:53 AM 15.1 °F 5.2 °F 8.1 °F 74% 30.10 in 8.0 mi WNW 6.9 mph - 0.00 in Snow Light Snow
6:53 AM 14.0 °F 2.0 °F 7.0 °F 74% 30.10 in 10.0 mi WNW 9.2 mph - 0.00 in   Overcast
7:28 AM 15.1 °F 2.5 °F 7.0 °F 70% 30.07 in 5.0 mi West 10.4 mph - 0.00 in Snow Light Snow
7:53 AM 14.0 °F 2.9 °F 5.0 °F 67% 30.12 in 9.0 mi West 8.1 mph - 0.00 in   Overcast
8:53 AM 15.1 °F 3.3 °F 7.0 °F 70% 30.13 in 10.0 mi West 9.2 mph - N/A   Overcast
9:53 AM 16.0 °F 4.4 °F 7.0 °F 68% 30.14 in 10.0 mi West 9.2 mph - 0.00 in   Overcast
10:24 AM 16.0 °F 2.9 °F 7.0 °F 68% 30.10 in 8.0 mi West 11.5 mph - 0.00 in Snow Light Snow
10:53 AM 16.0 °F 2.3 °F 8.1 °F 71% 30.13 in 5.0 mi WSW 12.7 mph 18.4 mph 0.00 in Snow Light Snow
11:09 AM 17.1 °F 4.3 °F 8.1 °F 68% 30.09 in 4.0 mi WSW 11.5 mph - 0.00 in Snow Light Snow
11:53 AM 17.1 °F 3.0 °F 8.1 °F 68% 30.13 in 4.0 mi WSW 13.8 mph 21.9 mph 0.00 in Snow Light Snow
12:41 PM 16.0 °F 0.6 °F 7.0 °F 68% 30.08 in 8.0 mi WSW 16.1 mph 25.3 mph 0.00 in Snow Light Snow
12:53 PM 17.1 °F 4.3 °F 7.0 °F 65% 30.11 in 8.0 mi WSW 11.5 mph 21.9 mph 0.00 in Snow Light Snow
1:53 PM 17.1 °F 3.0 °F 6.1 °F 62% 30.09 in 10.0 mi West 13.8 mph 25.3 mph 0.00 in   Overcast
2:53 PM 17.1 °F 2.0 °F 7.0 °F 65% 30.09 in 10.0 mi West 16.1 mph 28.8 mph N/A   Overcast
3:53 PM 18.0 °F 6.1 °F 7.0 °F 62% 30.07 in 10.0 mi WSW 10.4 mph 20.7 mph N/A   Overcast
4:53 PM 18.0 °F 3.6 °F 8.1 °F 65% 30.05 in 10.0 mi WSW 15.0 mph 21.9 mph N/A   Overcast
5:53 PM 18.0 °F 4.2 °F 9.0 °F 68% 30.06 in 10.0 mi WSW 13.8 mph - 0.00 in   Overcast
6:53 PM 18.0 °F 6.1 °F 12.0 °F 78% 30.05 in 3.0 mi WSW 10.4 mph - 0.00 in Snow Light Snow
7:53 PM 18.0 °F 6.1 °F 12.9 °F 81% 30.03 in 5.0 mi SW 10.4 mph - 0.00 in Snow Light Snow
8:53 PM 18.0 °F 6.9 °F 14.0 °F 84% 30.00 in 4.0 mi SW 9.2 mph - 0.00 in Snow Light Snow
9:14 PM 18.0 °F 9.8 °F 14.0 °F 84% 29.95 in 3.0 mi SSW 5.8 mph - 0.00 in Snow Light Snow
9:22 PM 18.0 °F 7.7 °F 14.0 °F 84% 29.95 in 1.8 mi SW 8.1 mph - 0.00 in Snow Light Snow
9:28 PM 18.0 °F 7.7 °F 14.0 °F 84% 29.95 in 0.8 mi SW 8.1 mph - 0.00 in Snow Light Snow
9:38 PM 18.0 °F 6.9 °F 15.1 °F 88% 29.95 in 1.2 mi SSW 9.2 mph - 0.00 in Snow Light Snow
9:50 PM 17.6 °F 8.2 °F 14.0 °F 86% 29.94 in 2.5 mi South 6.9 mph - 0.00 in Snow Light Snow
9:53 PM 17.1 °F 7.6 °F 14.0 °F 88% 29.98 in 4.0 mi South 6.9 mph - 0.00 in Snow Light Snow
10:53 PM 19.0 °F 7.5 °F 14.0 °F 81% 29.94 in 4.0 mi SW 10.4 mph - 0.00 in Snow Light Snow
11:34 PM 19.0 °F 7.5 °F 15.1 °F 85% 29.89 in 2.5 mi SW 10.4 mph - 0.00 in Snow Light Snow
11:37 PM 19.0 °F 6.8 °F 15.1 °F 85% 29.89 in 1.0 mi SW 11.5 mph 18.4 mph 0.00 in Snow Light Snow
11:41 PM 19.0 °F 6.1 °F 15.1 °F 85% 29.89 in 0.8 mi SW 12.7 mph - 0.00 in Snow Light Snow
11:48 PM 19.4 °F 7.2 °F 15.8 °F 86% 29.88 in 1.2 mi WSW 11.5 mph 21.9 mph 0.00 in Snow Light Snow
11:53 PM 19.0 °F 6.1 °F 15.1 °F 85% 29.92 in 1.5 mi SW 12.7 mph 25.3 mph 0.00 in Snow Light Snow